Вернуться в каталог

CZ-6A DEB

АктивенSSO
NORAD 56596·DEBRIS·🇨🇳 China

Запущен Nov 11, 2022 с Taiyuan Satellite Launch Center

Loading…

Ближайшие Пролёты (ближайшие 24 часа)

TLE

СвежийSource: Space-Track

Эпоха: Sep 12, 2026, 23:08 UTC

1 56596U 22151ADU 26255.96451846  .00001714  00000-0  79114-3 0  9993
2 56596  98.8134 267.3388 0036213  43.3255 317.0760 14.21953609186672

Отслеживайте CZ-6A DEB в реальном времени с AllMySat

Download on the App Store